GFSFLT2_prec_cloud_231.txt.gz
Cloud_Cover
0 4 0 0 12 4 57 5 5 9 55 100 82 5 96 100 100 100 100 22 2 18 9 2 0 0 85 8 27 100 100 100
4 0 0 0 3 19 21 41 59 67 33 100 99 100 100 100 100 100 100 41 12 0 0 16 0 0 18 2 62 100 100 100
16 2 0 0 3 3 18 71 100 87 50 100 100 100 100 100 78 72 0 0 0 0 0 0 3 72 100 57 7 97 100 99
0 72 8 0 0 0 60 100 100 99 100 100 100 100 100 99 100 18 0 3 0 0 0 80 100 100 100 97 98 17 64 74
0 7 100 88 0 6 100 100 100 100 100 100 100 100 100 82 100 100 92 14 10 0 0 0 4 100 100 99 22 90 96 97
0 10 100 24 0 16 82 100 100 98 100 95 100 100 97 88 100 100 100 100 93 0 0 0 50 45 13 7 100 4 5 21
0 33 100 86 27 22 100 100 47 71 16 99 100 95 74 100 100 100 100 100 100 49 90 98 97 19 5 14 0 0 0 12
0 5 100 100 1 0 17 97 97 100 100 44 100 100 99 100 100 100 100 100 100 96 88 100 99 50 5 2 0 0 0 0
0 8 100 100 100 100 100 7 9 93 60 49 13 100 80 100 100 100 100 100 100 100 97 100 100 56 5 1 0 0 0 0
2 0 42 54 73 86 33 100 92 19 97 80 100 98 100 100 100 100 100 100 100 100 100 99 53 4 5 2 5 32 100 88
100 40 0 10 0 79 12 60 64 10 0 5 100 100 100 100 100 100 100 100 100 100 99 100 67 81 5 5 5 5 88 100
100 17 0 35 75 100 97 36 4 0 10 10 66 100 100 100 100 100 100 100 100 100 100 100 100 43 33 41 58 11 37 21
100 100 84 6 79 31 20 63 22 1 100 100 100 42 100 100 44 100 100 100 100 100 100 100 100 100 100 9 73 2 4 1
72 100 29 2 4 64 39 33 96 66 50 18 100 86 28 100 96 100 100 100 100 100 100 100 100 100 100 21 5 2 4 9
98 98 56 66 100 100 99 12 2 99 95 100 100 94 100 100 100 83 78 100 100 100 100 100 100 100 97 11 17 76 12 11
100 72 98 100 100 100 100 100 57 100 100 100 99 97 94 100 96 86 60 96 60 100 75 100 52 19 5 6 0 3 39 55
100 57 100 96 100 100 100 100 100 100 100 100 72 100 93 75 8 44 2 40 40 4 5 10 0 2 3 1 1 5 5 10
92 23 3 97 100 100 100 100 100 100 100 100 100 100 100 22 100 98 10 2 39 6 78 100 100 77 30 2 0 0 0 3
100 48 5 6 10 21 77 100 100 58 100 64 5 41 100 100 98 98 91 30 4 0 0 0 4 7 98 100 94 100 100 100

GFSFLT2_prec_cloud_234.txt.gz
Cloud_Cover
0 0 0 0 0 1 0 0 21 0 7 18 100 83 98 5 2 1 0 76 5 5 6 0 0 5 100 2 5 62 84 30
1 5 4 0 0 3 0 5 3 14 99 88 55 98 100 88 75 70 14 26 76 100 100 33 0 0 53 0 17 46 99 100
0 1 0 0 0 2 0 0 1 94 100 100 32 73 50 100 100 28 5 8 2 0 0 2 4 5 22 91 100 100 100 98
0 0 0 5 95 51 2 0 5 92 100 100 58 40 98 97 100 97 98 17 6 4 97 0 0 5 62 100 100 100 100 100
0 0 1 1 88 91 5 0 6 32 100 100 97 39 100 100 100 82 13 19 90 33 99 1 44 51 100 100 100 99 78 85
0 0 66 5 53 100 5 5 84 100 100 100 90 41 99 100 99 100 100 100 17 100 87 64 100 100 100 95 100 100 100 27
0 1 80 7 100 85 100 5 14 100 97 5 52 2 98 71 100 79 22 24 43 100 94 100 100 100 99 100 100 92 9 3
0 0 5 89 100 100 99 6 2 47 100 100 52 42 100 88 47 25 99 76 100 100 100 100 100 100 100 100 100 8 6 13
0 0 1 5 11 5 18 5 8 72 92 100 100 66 96 100 64 74 100 98 100 100 100 100 100 100 100 100 100 36 8 4
0 0 0 5 13 100 81 79 66 55 4 100 94 100 100 100 100 81 98 100 100 100 100 100 100 100 100 100 100 100 60 4
16 3 0 5 0 4 24 100 100 100 94 71 4 1 74 100 100 38 100 100 100 100 100 100 100 100 100 100 100 95 97 55
100 100 100 94 5 4 5 95 100 100 53 100 93 97 3 100 98 38 100 100 100 100 100 100 100 100 100 100 100 99 65 32
100 100 100 97 0 3 12 55 98 100 90 7 5 33 26 100 23 100 100 100 100 100 100 100 100 100 100 100 100 48 67 15
100 100 100 100 5 23 77 26 51 6 25 13 100 100 100 100 99 100 100 100 100 100 100 100 100 100 100 99 100 100 90 24
100 98 100 100 98 22 3 1 8 66 44 100 100 100 100 100 100 100 100 100 100 100 100 100 100 100 100 100 100 100 100 100
100 100 100 100 100 100 97 99 40 0 33 100 99 100 100 94 100 100 100 100 100 100 100 100 100 100 100 100 100 100 100 100
100 100 100 100 100 76 30 47 5 0 95 100 31 100 100 100 94 100 100 100 100 100 100 100 100 100 100 100 100 99 96 82
100 100 100 100 100 45 78 19 0 0 71 99 99 100 100 100 90 100 100 100 100 100 100 100 100 100 100 95 15 5 2 2
100 100 100 99 100 83 98 6 76 35 3 1 70 32 56 100 100 100 58 93 70 73 94 100 100 60 4 0 4 1 0 0

GFSFLT2_prec_cloud_237.txt.gz
Cloud_Cover
0 4 25 8 5 2 0 0 0 0 0 4 1 6 100 88 4 0 0 5 0 0 0 0 2 68 5 2 3 5 5 5
0 0 0 0 4 2 0 0 0 0 0 16 100 39 90 21 5 5 5 3 3 10 10 2 0 2 5 5 5 12 5 73
0 0 3 2 0 2 1 0 0 0 2 36 98 95 98 99 59 7 42 72 93 53 3 3 14 0 0 13 98 99 100 95
0 4 4 0 4 8 94 0 0 0 3 100 100 8 8 100 74 100 100 100 14 0 0 35 90 4 5 7 80 50 85 69
0 0 0 0 1 5 3 23 4 0 22 38 97 48 5 100 100 100 97 16 3 3 5 5 65 100 85 100 100 100 72 24
0 0 0 5 0 1 47 0 5 0 60 96 100 100 31 90 100 100 79 4 20 86 31 80 66 89 100 100 100 100 100 100
0 1 5 7 0 4 3 4 8 2 67 40 100 84 90 68 100 100 82 32 54 40 30 58 100 80 100 100 100 94 100 100
0 0 5 28 5 5 3 1 0 0 6 100 100 100 100 71 85 59 18 5 5 5 5 70 100 94 100 100 100 80 11 21
0 0 0 0 7 5 5 5 0 0 100 100 100 100 100 50 88 100 6 5 5 46 100 100 100 100 100 100 100 100 100 99
0 0 0 0 0 0 0 0 0 7 30 100 100 100 98 68 70 100 45 10 9 100 100 100 100 100 100 100 100 100 100 67
4 0 0 4 0 0 0 4 6 90 6 100 100 100 53 19 7 72 5 78 16 99 99 100 100 100 100 100 100 100 100 100
5 6 12 98 18 0 4 2 0 84 100 45 100 99 58 100 2 33 32 94 50 100 100 100 100 100 100 100 100 100 100 100
5 65 98 100 100 44 8 99 100 97 100 100 99 19 13 81 61 31 66 48 98 100 100 100 100 100 100 100 100 100 100 100
86 16 68 100 95 80 18 6 100 100 100 95 88 99 41 3 3 84 68 98 100 100 100 100 100 100 100 100 100 100 100 100
94 99 100 31 100 100 79 1 6 81 100 100 100 100 1 5 5 93 94 100 100 100 100 100 100 100 100 100 100 100 100 100
97 100 100 78 6 100 96 100 3 1 37 99 100 36 5 100 99 100 100 100 100 99 100 100 100 100 100 100 100 100 100 100
94 100 100 58 70 100 83 58 44 13 25 5 52 91 5 100 97 100 100 100 100 100 100 100 100 100 100 100 100 100 100 100
90 100 100 44 37 99 93 31 52 23 87 24 5 4 5 100 100 100 100 100 100 100 100 100 100 100 100 100 100 100 100 100
60 76 100 32 87 44 23 5 38 89 78 92 15 8 41 100 100 100 100 100 100 100 100 100 100 100 100 100 100 100 100 100

GFSFLT2_prec_cloud_240.txt.gz
Cloud_Cover
0 5 8 5 5 0 0 0 0 0 0 0 0 13 5 5 5 2 0 0 0 0 0 20 5 5 3 4 3 3 0 5
0 4 5 5 5 2 0 0 0 0 0 0 61 96 37 5 5 10 6 24 72 0 0 1 0 4 1 0 2 0 3 5
0 0 4 19 0 0 0 1 0 0 0 5 77 100 96 9 3 2 64 53 75 15 48 0 0 0 3 4 12 5 11 40
0 1 4 1 0 1 3 0 0 0 0 95 96 100 100 5 88 85 99 34 48 35 3 0 0 4 1 3 5 7 5 7
0 1 3 0 0 4 2 0 0 0 0 4 24 97 100 64 6 29 95 47 74 55 44 7 4 5 5 6 40 9 6 53
0 0 0 0 0 0 3 0 0 0 0 0 95 32 15 61 14 27 12 99 73 5 4 37 5 72 29 31 12 9 10 46
0 0 1 5 4 0 0 0 0 3 0 0 76 8 100 46 67 84 95 65 12 6 84 30 7 5 29 12 75 9 5 38
0 0 0 5 5 5 0 0 0 0 0 0 100 6 94 100 100 96 100 100 92 99 39 25 7 71 100 100 100 100 100 17
0 0 0 0 1 4 2 0 0 7 4 5 90 64 100 100 100 100 54 100 26 8 75 100 90 100 100 98 99 74 100 98
0 0 0 0 0 0 1 0 0 10 0 0 68 94 100 100 100 100 82 65 51 30 84 72 100 100 100 100 100 100 100 100
0 0 0 0 0 0 0 0 0 0 0 22 5 5 69 5 12 100 99 8 65 95 7 100 100 100 100 100 100 100 100 100
0 3 0 0 0 0 0 5 47 0 0 5 1 53 100 94 46 100 100 18 68 44 59 100 100 100 100 100 100 100 100 100
0 5 0 0 0 0 0 4 5 58 7 0 51 100 100 75 9 68 100 88 65 50 100 100 100 100 100 100 100 100 100 100
2 4 0 0 3 12 33 5 17 99 90 63 92 100 77 77 5 66 99 99 86 60 82 100 100 99 100 100 100 100 100 100
0 5 5 6 48 82 100 88 58 32 99 81 100 100 100 100 99 41 86 95 82 42 66 82 100 100 100 100 100 100 100 100
0 5 14 99 7 84 100 100 100 83 9 94 100 100 79 88 94 48 19 42 8 59 100 100 100 100 100 100 100 100 100 100
2 5 26 98 95 83 96 100 99 92 39 11 25 84 60 24 22 11 30 19 27 98 100 100 94 100 100 100 100 100 100 100
27 12 55 83 83 92 100 100 96 91 99 100 96 20 12 44 50 68 38 52 73 100 100 100 100 100 100 100 100 100 100 100
5 62 38 38 100 99 83 100 100 100 82 100 62 100 11 11 47 52 40 36 47 98 100 100 100 100 100 100 100 100 100 98

GFSFLT2_prec_cloud_246.txt.gz
Cloud_Cover
0 0 0 0 0 4 5 4 3 19 5 0 1 0 0 2 31 5 0 0 0 0 0 0 0 0 2 6 8 13 20 34
0 0 0 1 11 3 2 11 55 99 5 4 0 5 5 5 5 4 0 0 0 0 0 0 0 0 0 0 2 21 30 19
0 0 0 0 0 0 1 19 32 20 16 5 2 5 4 9 5 1 0 1 5 0 0 0 0 0 0 0 0 2 1 5
0 0 0 0 0 5 2 34 28 0 0 3 2 3 55 100 40 4 0 4 95 94 5 0 0 0 0 0 0 0 2 5
0 0 0 0 0 0 0 4 5 2 2 65 0 0 26 54 14 2 13 76 33 5 5 13 8 2 0 0 0 0 0 12
0 0 0 0 0 0 0 5 57 64 4 0 5 0 76 100 89 10 100 100 82 96 100 100 100 25 5 2 1 6 21 16
0 0 0 0 0 0 0 3 5 45 5 0 5 0 1 9 30 42 99 88 100 100 98 100 96 54 3 2 1 3 17 31
0 0 0 0 0 0 0 0 0 0 0 0 3 39 0 5 5 100 60 98 100 100 89 5 59 12 5 29 39 54 82 100
0 0 0 0 0 0 0 0 0 0 4 0 3 5 0 9 5 100 100 100 100 100 100 72 35 6 17 81 100 100 100 100
0 0 0 0 0 0 0 0 0 0 0 0 1 0 0 2 1 100 84 100 76 94 100 100 100 99 100 93 99 100 100 100
0 0 0 0 0 0 0 0 0 0 0 0 0 0 0 0 5 38 100 100 61 100 84 100 100 100 98 92 100 100 100 100
19 0 57 81 1 0 0 0 0 0 0 0 0 0 1 0 99 97 96 96 100 100 100 87 56 96 100 100 100 100 100 100
74 22 98 3 0 0 0 0 0 0 0 0 0 0 0 0 14 2 66 5 82 100 100 100 100 100 100 100 100 100 100 100
5 59 100 70 5 0 0 0 0 0 0 0 0 0 0 0 0 0 8 40 5 87 17 98 100 100 100 100 100 100 100 100
2 12 0 3 0 5 0 0 0 0 0 0 0 0 0 0 0 0 0 4 5 11 87 100 100 100 58 90 100 100 100 100
0 0 0 19 100 19 4 4 0 0 0 0 0 0 0 0 0 0 2 6 100 100 100 100 100 100 100 46 100 100 100 100
1 0 0 96 74 5 5 5 0 0 0 25 11 7 5 2 1 0 6 100 86 92 100 100 100 100 100 100 100 100 96 100
80 4 83 100 100 57 5 0 0 0 2 99 91 42 100 4 5 5 15 24 94 100 89 100 100 100 100 100 96 99 100 98
17 100 100 100 100 100 67 4 3 9 100 52 99 100 100 52 5 5 5 13 42 36 52 100 100 97 100 100 100 100 90 100

GFSFLT2_prec_cloud_252.txt.gz
Cloud_Cover
0 0 0 0 0 0 4 4 94 100 100 24 100 98 21 0 4 8 5 0 0 0 0 39 9 0 0 0 0 9 0 0
0 0 0 0 4 2 0 0 0 6 25 74 58 84 100 0 0 69 32 1 0 0 0 0 26 1 0 0 0 1 76 50
0 0 0 0 0 0 22 13 78 86 66 89 100 39 1 2 2 1 27 0 0 0 0 0 26 60 0 31 22 1 31 98
0 0 0 0 0 0 5 0 4 6 36 100 98 24 2 0 0 0 0 0 0 0 0 0 8 50 61 0 35 7 70 27
0 0 0 0 0 0 0 5 4 41 95 57 95 56 100 5 0 0 0 0 0 1 5 0 14 5 0 3 100 100 28 98
0 0 14 0 0 0 3 5 3 22 100 100 56 91 100 84 2 0 0 0 0 3 4 5 84 23 5 3 92 87 97 0
0 0 3 5 1 0 1 0 6 40 90 53 6 92 100 66 0 0 0 0 4 29 33 4 37 100 5 5 72 7 5 76
0 0 0 0 6 5 5 2 0 0 0 68 100 77 100 0 0 0 0 0 0 5 71 89 54 100 100 69 100 79 89 17
0 0 0 0 0 0 0 4 4 5 4 13 15 70 70 0 0 0 0 0 0 7 99 99 99 77 100 100 93 76 96 12
0 0 0 2 0 0 0 0 0 5 28 78 1 17 2 0 0 0 0 0 0 0 74 100 100 99 100 99 30 5 5 80
0 0 0 0 4 2 4 4 59 1 4 6 6 88 24 3 0 0 0 0 0 0 54 100 96 100 100 100 77 7 26 100
7 4 5 12 93 2 3 95 68 25 59 9 89 42 61 45 0 0 0 0 4 16 97 18 36 100 100 100 98 100 21 98
73 100 47 99 61 13 72 100 55 100 5 53 44 2 95 1 0 0 0 0 0 0 39 92 19 100 100 100 90 36 100 100
70 100 100 10 46 13 84 100 100 77 71 64 90 60 2 0 0 0 0 0 0 0 0 13 16 13 100 97 98 100 100 100
91 100 100 100 21 5 66 46 100 100 24 8 59 0 0 0 0 0 0 0 0 0 0 0 6 99 54 78 92 100 100 100
53 100 100 54 100 100 10 7 17 96 99 100 57 6 1 0 0 0 0 0 10 4 47 6 20 100 100 83 100 100 100 100
46 63 1 89 100 100 83 17 38 16 90 100 29 9 16 5 13 16 7 4 9 32 4 11 4 1 26 34 65 51 34 74
8 86 60 100 100 100 100 100 69 92 44 43 2 0 0 17 43 46 41 40 17 0 100 96 38 96 100 72 97 58 98 89
100 100 100 100 100 100 100 76 50 13 2 94 28 16 26 84 15 0 15 98 61 6 5 100 100 100 100 75 100 100 91 73

GFSFLT2_prec_cloud_255.txt.gz
Cloud_Cover
0 0 0 0 0 0 3 2 46 11 79 96 100 31 2 2 2 5 5 4 0 0 0 0 0 0 0 0 0 7 11 0
0 0 0 0 0 4 0 0 19 15 100 100 75 54 92 32 7 2 4 5 1 1 1 0 0 0 0 0 0 0 0 0
0 0 0 0 0 0 0 1 5 90 94 96 100 96 27 43 53 8 0 0 0 82 30 0 0 0 0 0 0 0 0 0
0 0 0 0 0 0 0 0 2 89 76 5 64 5 96 66 61 91 0 0 0 0 0 0 0 0 0 0 0 0 0 2
0 0 0 0 0 0 0 0 0 2 10 2 5 82 100 100 100 100 16 2 0 0 0 0 0 0 1 0 15 4 99 0
0 0 0 0 0 0 0 0 0 0 4 5 71 77 81 100 100 100 93 8 2 0 0 0 0 0 5 3 41 78 0 53
0 0 0 0 0 0 0 0 0 2 0 3 15 36 92 100 100 100 55 1 0 0 0 0 0 0 5 5 33 49 4 0
0 0 0 0 0 0 0 0 0 0 13 10 4 2 1 0 3 5 0 0 0 0 0 5 1 5 3 5 3 2 5 16
0 0 0 0 0 0 0 0 0 0 0 8 17 90 0 0 0 5 0 0 0 0 0 1 4 5 17 3 71 22 5 7
0 0 0 0 0 0 0 0 0 0 1 5 32 63 34 0 3 0 0 0 0 0 0 0 11 5 30 14 5 44 83 5
10 49 0 0 0 0 0 0 0 0 0 0 100 97 100 6 8 0 0 0 0 0 0 0 0 24 25 7 75 76 100 35
18 7 1 0 0 0 0 0 0 4 0 5 39 5 5 6 100 3 54 0 0 0 0 0 1 0 4 5 44 64 18 5
75 7 4 0 0 0 0 3 42 60 7 0 29 13 11 5 3 18 27 3 0 0 0 0 0 0 2 1 8 9 42 69
19 6 49 23 10 57 41 92 100 100 100 95 85 11 0 1 2 7 37 4 0 0 0 0 0 0 0 0 21 88 100 100
0 4 5 0 100 100 100 100 100 100 100 100 100 100 23 5 2 3 5 0 0 0 0 0 0 0 24 100 66 90 100 100
4 4 15 0 7 100 100 100 100 99 100 100 100 100 100 88 32 0 0 0 0 1 5 21 48 83 78 66 82 51 83 100
40 77 15 0 90 92 83 100 100 100 100 100 78 14 33 36 5 0 0 0 4 41 0 8 2 39 65 100 59 86 81 85
98 82 60 21 12 72 99 100 100 100 100 100 21 74 91 3 38 35 28 71 3 0 4 52 92 99 81 100 94 51 63 100
100 100 100 37 100 91 100 100 100 100 100 100 99 19 5 28 18 100 92 95 99 98 100 100 100 100 100 100 100 100 100 92

GFSFLT2_prec_cloud_261.txt.gz
Cloud_Cover
0 0 0 0 0 4 5 0 0 0 0 0 0 2 0 0 3 5 0 0 0 0 0 0 1 64 96 95 100 100 100 100
0 0 0 0 0 0 0 0 0 0 0 0 0 0 0 0 0 1 0 0 0 0 0 0 0 16 38 26 81 100 100 96
0 0 0 2 1 0 0 0 0 0 0 0 0 0 0 0 0 0 0 0 0 0 0 0 0 17 53 70 91 100 100 91
0 0 0 0 0 0 0 0 0 0 0 0 0 0 0 0 4 2 1 0 0 0 0 3 0 3 16 33 35 39 41 40
0 0 0 0 0 0 0 0 0 0 0 0 0 0 0 0 0 0 0 0 0 0 0 0 0 0 2 1 0 0 0 11
0 0 0 0 0 0 0 0 0 0 0 0 0 0 0 0 0 0 0 1 0 0 0 0 0 0 0 0 0 0 4 0
0 0 0 0 0 0 0 0 0 0 0 0 0 0 0 0 0 0 0 0 0 0 0 0 0 0 0 2 0 0 5 0
0 0 0 0 0 0 0 0 0 0 0 0 0 0 0 0 0 0 0 0 0 0 0 0 0 0 0 0 0 5 4 22
0 0 0 0 0 0 0 0 0 0 0 0 0 0 0 0 2 4 8 5 0 2 0 0 0 0 0 0 1 1 5 1
0 0 0 0 0 0 0 0 0 0 0 0 0 0 0 4 8 30 100 66 3 0 0 0 0 0 0 0 3 5 5 5
0 0 0 0 0 0 0 0 0 0 0 0 0 0 0 43 94 97 11 5 4 1 0 0 5 4 0 0 0 5 5 5
0 0 0 0 0 0 0 0 0 0 0 0 0 0 0 0 0 1 5 100 20 5 2 1 1 5 5 0 0 0 3 5
0 0 0 0 0 0 0 0 0 0 0 0 1 0 5 0 1 2 5 52 45 0 0 0 0 4 0 0 1 82 99 100
50 4 0 0 0 0 0 0 0 0 0 0 0 0 3 0 91 7 6 90 84 13 0 0 0 0 0 2 100 100 100 100
36 18 52 5 5 3 0 0 0 0 0 0 0 0 0 0 44 5 100 100 100 49 3 3 0 2 3 100 100 100 100 100
100 100 99 63 62 5 7 22 4 1 1 0 0 1 1 5 48 98 100 100 100 91 79 100 35 53 100 100 100 100 100 100
100 100 99 100 100 100 75 10 1 0 0 0 0 5 10 5 8 86 100 100 100 100 100 100 100 99 100 100 100 100 100 100
93 14 12 46 27 92 42 14 8 2 0 0 4 5 68 41 100 100 100 100 100 100 100 100 100 100 100 100 100 100 100 100
0 0 0 0 0 2 6 5 2 0 0 2 4 40 100 100 100 100 100 100 100 100 100 72 25 100 94 100 100 100 100 100